STARLINK-32824 (62817 NORAD) Tracking and Keplerian Element Data

This shows tracking and keplerian element data for the satellite.

Feedback or suggestion? Click here.




ElementValue
Catalog62817
NameSTARLINK-32824
Epoch Orbit295
Epoch Day35.25001157
Epoch Year2025
RAAN11.4885
Inclination53.1472
Eccentricity0.0001003
Argument of Perigee74.6028
Mean Anonmoly108.0937
Mean Motion15.85893573
Decay Rate-0.01021348
L11 62817U 25018M 25035.25001157 -.01021348 00000+0 -45773-2 0 9994
L22 62817 53.1472 11.4885 0001003 74.6028 108.0937 15.85893573 2954



Live tracking and technical data element details for STARLINK-32824 (NORAD 62817). STARLINK-32824 can be tracked NOW for your location showing map with azimuth and elevation plus other details from your city location.







IsCatalogInMostPopularTable: catalog: 62817, numindb: 5
Update: records affected: 1



GetName: 62817 STARLINK-32824

Hit Count: updated at: Fri, 14 Feb 2025 14:37:09 GMT